User: anonymous   Login
Location: Unspecified
(0.0000°N, 0.0000°E)
Time: 10:14:37
(UTC+00:00)
Language:

CUTE 1.7 + AOD 2 - Orbit

View from above orbital plane
View from above orbital plane
View from above satellite
View from above satellite

Ground track
Ground track

The orbit data is extracted from the following two-line orbital elements,

1 32785U 08021C   19081.87938792 +.00000193 +00000-0 +26460-4 0  9993
2 32785 097.5494 085.7412 0012793 187.5062 172.5966 14.88266319590551
Epoch (UTC): 22 March 2019 21:06:19
Eccentricity: 0.0012793
inclination: 97.5494°
perigee height: 594 km
apogee height: 612 km
right ascension of ascending node: 85.7412°
argument of perigee: 187.5062°
revolutions per day: 14.88266319
mean anomaly at epoch: 172.5966°
orbit number at epoch: 59055

The dashed part of the orbit path shows where the satellite is in the earth's shadow,  

DLR